Copper Harbor, MI

8:10 PM EST on February 22, 2017 (GMT -0500)
Copper Harbor

Weather History for KP59 - December, 2012

Change the Weather History Date:

Sunday, December 2, 2012

  Actual Average Record
Temperature  
Mean Temperature 38 °F -  
Max Temperature 39 °F 33 °F 42 °F (1998)
Min Temperature 37 °F 24 °F 10 °F (2014)
Degree Days  
Heating Degree Days 27    
Moisture  
Dew Point 36 °F    
Average Humidity 88    
Maximum Humidity 96    
Minimum Humidity 82    
Precipitation  
Precipitation 0.00 in - - ()
Sea Level Pressure  
Sea Level Pressure 29.92 in    
Wind  
Wind Speed 8 mph (North)    
Max Wind Speed 14 mph    
Max Gust Speed 21 mph    
Averages and records for this station are not official NWS values.
T = Trace of Precipitation, MM = Missing Value Source: NWS Daily Summary

Daily Weather History Graph

Daily Weather History Graph

Search for Another Location

Airport or City:

Trip Planner

Search our weather history database for the weather conditions in past years. The results will help you decide how hot, cold, wet, or windy it might be!

Date:

Astronomy

Dec. 02, 2012 Rise Set
Actual Time 8:20 AM EST 5:02 PM EST
Civil Twilight 7:44 AM EST 5:37 PM EST
Nautical Twilight 7:06 AM EST 6:15 PM EST
Astronomical Twilight 6:29 AM EST 6:52 PM EST
Moon 8:56 PM EST (12/2) 11:03 AM EST (12/2)
Length of Visible Light 9h 52m
Length of Day
8h 42m
Waning Gibbous, 86% of the Moon is Illuminated
Dec 2
Waning Gibbous
Dec 6
Last Quarter
Dec 13
New
Dec 20
First Quarter
Dec 28
Full

Hourly Weather History & Observations

Time (EST) Temp. Windchill Dew Point Humidity Pressure Visibility Wind Dir Wind Speed Gust Speed Precip Events Conditions
12:51 AM 39.0 °F 34.0 °F 37.9 °F 96% 29.77 in - NNW 6.9 mph - N/A   Unknown
1:51 AM 39.0 °F 33.4 °F 37.9 °F 96% 29.79 in - NNW 8.1 mph - N/A   Unknown
2:51 AM 39.0 °F 32.3 °F 37.9 °F 96% 29.81 in - North 10.4 mph - N/A   Unknown
3:51 AM 39.0 °F 32.3 °F 37.0 °F 93% 29.82 in - North 10.4 mph - N/A   Unknown
4:51 AM 39.0 °F 31.0 °F 36.0 °F 89% 29.81 in - NNE 13.8 mph - N/A   Unknown
5:51 AM 39.0 °F 31.4 °F 35.1 °F 86% 29.83 in - NNE 12.7 mph - N/A   Unknown
6:51 AM 39.0 °F 31.8 °F 36.0 °F 89% 29.86 in - NNE 11.5 mph - N/A   Unknown
7:51 AM 39.0 °F 31.8 °F 36.0 °F 89% 29.88 in - NNE 11.5 mph - N/A   Unknown
8:51 AM 39.0 °F 32.3 °F 36.0 °F 89% 29.91 in - North 10.4 mph - N/A   Unknown
9:51 AM 39.0 °F 32.8 °F 36.0 °F 89% 29.94 in - North 9.2 mph - N/A   Unknown
10:51 AM 39.0 °F 32.8 °F 36.0 °F 89% 29.94 in - North 9.2 mph - N/A   Unknown
11:51 AM 39.9 °F 35.1 °F 36.0 °F 86% 29.96 in - North 6.9 mph - N/A   Unknown
12:51 PM 39.9 °F 35.1 °F 36.0 °F 86% 29.95 in - North 6.9 mph - N/A   Unknown
1:51 PM 39.9 °F 33.9 °F 35.1 °F 83% 29.96 in - NNW 9.2 mph - N/A   Unknown
2:51 PM 39.9 °F 36.7 °F 36.0 °F 86% 29.97 in - NNW 4.6 mph - N/A   Unknown
3:51 PM 39.9 °F - 36.0 °F 86% 29.97 in - Calm Calm - N/A   Unknown
4:51 PM 39.0 °F - 35.1 °F 86% 29.98 in - Calm Calm - N/A   Unknown
5:51 PM 37.9 °F - 34.0 °F 86% 30.01 in - Calm Calm - N/A   Unknown
6:51 PM 37.0 °F - 34.0 °F 89% 30.00 in - Calm Calm - N/A   Unknown
7:51 PM 37.0 °F - 34.0 °F 89% 30.01 in - Calm Calm - N/A   Unknown
8:51 PM 39.0 °F 35.7 °F 34.0 °F 82% 29.98 in - SSW 4.6 mph - N/A   Unknown
9:51 PM 39.0 °F 33.4 °F 34.0 °F 82% 29.98 in - SW 8.1 mph - N/A   Unknown
10:51 PM 37.9 °F 30.0 °F 35.1 °F 89% 29.95 in - SW 12.7 mph 19.6 mph N/A   Unknown
11:51 PM 37.9 °F 30.0 °F 35.1 °F 89% 29.94 in - SW 12.7 mph 20.7 mph N/A   Unknown